QPF
0.02 0.02 0.01 0.01 0.00 0.00 0.00 0.01 0.01 0.01 0.01 0.01 0.01 0.01 0.01 0.02 0.03 0.03 0.02 0.01 0.02 0.03 0.02 0.01 0.01 0.00 0.00 0.00 0.00 0.01 0.01 0.02 0.01 0.00 0.00 0.00 0.00 0.01 0.01 0.02 0.02 0.02 0.04
0.03 0.03 0.02 0.01 0.01 0.01 0.01 0.01 0.03 0.02 0.02 0.01 0.01 0.01 0.01 0.01 0.01 0.01 0.01 0.01 0.02 0.02 0.01 0.01 0.01 0.01 0.01 0.01 0.01 0.01 0.01 0.01 0.00 0.00 0.00 0.01 0.01 0.01 0.02 0.02 0.02 0.03 0.05
0.03 0.03 0.03 0.03 0.02 0.01 0.01 0.01 0.02 0.02 0.01 0.01 0.01 0.01 0.01 0.00 0.00 0.01 0.00 0.01 0.01 0.01 0.01 0.01 0.01 0.01 0.01 0.01 0.01 0.01 0.01 0.01 0.00 0.00 0.00 0.00 0.01 0.01 0.02 0.03 0.04 0.04 0.04
0.03 0.04 0.04 0.02 0.02 0.02 0.01 0.01 0.02 0.02 0.03 0.03 0.02 0.03 0.02 0.01 0.01 0.01 0.01 0.01 0.00 0.00 0.01 0.01 0.01 0.01 0.01 0.01 0.01 0.01 0.01 0.00 0.00 0.00 0.00 0.00 0.01 0.02 0.03 0.03 0.03 0.03 0.02
0.02 0.03 0.03 0.03 0.02 0.02 0.01 0.01 0.01 0.01 0.02 0.03 0.03 0.04 0.04 0.03 0.01 0.01 0.01 0.01 0.01 0.00 0.01 0.01 0.01 0.00 0.00 0.01 0.01 0.02 0.02 0.01 0.01 0.01 0.01 0.01 0.01 0.02 0.03 0.03 0.02 0.02 0.02
0.02 0.02 0.02 0.03 0.02 0.02 0.02 0.01 0.01 0.01 0.01 0.02 0.03 0.02 0.02 0.02 0.01 0.01 0.02 0.02 0.01 0.01 0.01 0.01 0.01 0.00 0.01 0.00 0.00 0.01 0.01 0.01 0.02 0.02 0.02 0.02 0.02 0.02 0.03 0.03 0.01 0.01 0.02
0.01 0.01 0.02 0.03 0.03 0.03 0.03 0.02 0.01 0.01 0.01 0.02 0.03 0.02 0.01 0.01 0.01 0.01 0.01 0.01 0.01 0.01 0.01 0.01 0.02 0.01 0.01 0.01 0.01 0.00 0.01 0.01 0.02 0.02 0.02 0.02 0.03 0.02 0.03 0.02 0.02 0.02 0.02
0.02 0.02 0.02 0.02 0.03 0.03 0.03 0.03 0.01 0.01 0.02 0.02 0.02 0.03 0.01 0.00 0.00 0.01 0.01 0.01 0.01 0.01 0.01 0.01 0.01 0.01 0.01 0.01 0.01 0.01 0.01 0.01 0.01 0.01 0.01 0.02 0.03 0.02 0.03 0.03 0.03 0.03 0.02
0.02 0.03 0.03 0.03 0.03 0.03 0.04 0.03 0.02 0.02 0.03 0.02 0.02 0.03 0.01 0.01 0.01 0.00 0.01 0.01 0.01 0.01 0.01 0.01 0.02 0.01 0.01 0.00 0.00 0.01 0.01 0.02 0.01 0.01 0.01 0.01 0.02 0.02 0.01 0.02 0.03 0.03 0.03
0.02 0.03 0.03 0.04 0.03 0.04 0.05 0.05 0.04 0.03 0.03 0.03 0.03 0.03 0.02 0.01 0.01 0.01 0.01 0.01 0.01 0.01 0.01 0.01 0.01 0.01 0.01 0.00 0.00 0.00 0.01 0.01 0.02 0.02 0.01 0.01 0.02 0.02 0.02 0.02 0.04 0.04 0.03
0.02 0.02 0.03 0.05 0.05 0.03 0.04 0.05 0.05 0.04 0.04 0.03 0.03 0.02 0.01 0.01 0.01 0.01 0.02 0.01 0.01 0.01 0.01 0.01 0.01 0.01 0.00 0.00 0.00 0.00 0.00 0.01 0.01 0.02 0.02 0.02 0.02 0.02 0.02 0.02 0.03 0.04 0.03
0.02 0.02 0.02 0.03 0.04 0.04 0.03 0.03 0.04 0.04 0.03 0.03 0.03 0.02 0.01 0.01 0.01 0.01 0.01 0.02 0.01 0.01 0.01 0.01 0.01 0.01 0.01 0.00 0.00 0.00 0.01 0.01 0.01 0.02 0.02 0.02 0.02 0.02 0.02 0.01 0.01 0.02 0.02
0.03 0.03 0.03 0.04 0.03 0.03 0.02 0.02 0.03 0.03 0.03 0.03 0.03 0.02 0.02 0.02 0.02 0.01 0.01 0.02 0.02 0.01 0.01 0.01 0.01 0.01 0.01 0.01 0.00 0.00 0.01 0.01 0.01 0.01 0.01 0.02 0.02 0.02 0.02 0.01 0.01 0.01 0.01
0.05 0.05 0.06 0.05 0.03 0.02 0.02 0.02 0.03 0.03 0.03 0.03 0.03 0.03 0.02 0.03 0.02 0.02 0.01 0.01 0.01 0.01 0.00 0.01 0.02 0.01 0.01 0.01 0.00 0.00 0.00 0.01 0.01 0.01 0.01 0.01 0.02 0.02 0.03 0.03 0.02 0.01 0.01
0.06 0.07 0.09 0.09 0.04 0.02 0.02 0.02 0.02 0.03 0.02 0.03 0.03 0.03 0.02 0.03 0.03 0.02 0.02 0.02 0.01 0.01 0.01 0.01 0.01 0.01 0.00 0.00 0.00 0.00 0.00 0.00 0.01 0.01 0.01 0.01 0.01 0.02 0.02 0.02 0.02 0.02 0.01
0.04 0.06 0.07 0.12 0.08 0.04 0.02 0.02 0.02 0.03 0.03 0.03 0.03 0.02 0.03 0.03 0.03 0.03 0.02 0.02 0.02 0.01 0.01 0.01 0.01 0.01 0.01 0.01 0.01 0.01 0.01 0.01 0.01 0.01 0.01 0.01 0.01 0.02 0.03 0.02 0.02 0.01 0.02
0.02 0.04 0.05 0.08 0.09 0.07 0.04 0.02 0.02 0.03 0.03 0.02 0.02 0.02 0.02 0.03 0.03 0.03 0.03 0.02 0.02 0.02 0.01 0.01 0.01 0.01 0.01 0.01 0.01 0.02 0.02 0.01 0.01 0.01 0.01 0.01 0.01 0.02 0.02 0.02 0.02 0.01 0.01
0.02 0.02 0.04 0.05 0.05 0.06 0.06 0.04 0.03 0.02 0.03 0.03 0.02 0.02 0.02 0.02 0.02 0.02 0.02 0.03 0.03 0.02 0.01 0.01 0.01 0.01 0.01 0.01 0.01 0.02 0.02 0.01 0.01 0.01 0.01 0.01 0.01 0.01 0.01 0.01 0.01 0.01 0.01
0.01 0.01 0.01 0.02 0.03 0.04 0.05 0.05 0.05 0.04 0.03 0.03 0.02 0.02 0.02 0.02 0.02 0.03 0.02 0.02 0.03 0.02 0.01 0.01 0.01 0.01 0.01 0.01 0.01 0.01 0.01 0.02 0.02 0.01 0.01 0.01 0.01 0.01 0.01 0.02 0.02 0.01 0.02
0.01 0.01 0.01 0.01 0.01 0.02 0.03 0.05 0.05 0.05 0.04 0.05 0.04 0.03 0.02 0.02 0.02 0.02 0.02 0.02 0.03 0.02 0.02 0.02 0.02 0.01 0.01 0.01 0.01 0.01 0.01 0.02 0.02 0.01 0.01 0.02 0.02 0.02 0.01 0.01 0.01 0.01 0.01
0.01 0.01 0.01 0.01 0.01 0.02 0.03 0.05 0.07 0.06 0.05 0.06 0.05 0.03 0.02 0.02 0.02 0.02 0.01 0.02 0.03 0.03 0.03 0.02 0.02 0.02 0.01 0.02 0.01 0.01 0.01 0.01 0.02 0.02 0.01 0.02 0.02 0.02 0.02 0.01 0.01 0.00 0.01
0.01 0.01 0.01 0.01 0.01 0.01 0.02 0.05 0.08 0.05 0.04 0.04 0.04 0.02 0.02 0.01 0.02 0.02 0.02 0.02 0.04 0.03 0.03 0.03 0.03 0.03 0.03 0.02 0.01 0.01 0.01 0.01 0.02 0.03 0.01 0.01 0.01 0.02 0.02 0.02 0.01 0.01 0.01
0.01 0.00 0.00 0.01 0.02 0.02 0.02 0.05 0.07 0.06 0.04 0.04 0.03 0.02 0.01 0.01 0.02 0.02 0.02 0.03 0.03 0.03 0.03 0.03 0.02 0.02 0.02 0.02 0.02 0.01 0.01 0.01 0.01 0.03 0.03 0.01 0.01 0.02 0.02 0.02 0.02 0.01 0.01
0.00 0.00 0.00 0.01 0.01 0.01 0.03 0.06 0.08 0.07 0.04 0.04 0.02 0.01 0.01 0.01 0.01 0.02 0.02 0.02 0.03 0.03 0.03 0.03 0.03 0.03 0.02 0.02 0.02 0.01 0.01 0.01 0.02 0.03 0.04 0.02 0.02 0.03 0.03 0.03 0.03 0.02 0.01
0.00 0.01 0.01 0.01 0.01 0.01 0.02 0.07 0.08 0.06 0.05 0.04 0.02 0.01 0.01 0.01 0.01 0.02 0.02 0.02 0.02 0.03 0.03 0.03 0.04 0.04 0.03 0.02 0.02 0.02 0.01 0.02 0.03 0.04 0.05 0.03 0.03 0.03 0.04 0.03 0.03 0.02 0.01
0.01 0.01 0.01 0.00 0.00 0.00 0.01 0.06 0.08 0.05 0.03 0.03 0.03 0.03 0.02 0.01 0.01 0.02 0.02 0.02 0.02 0.03 0.03 0.04 0.04 0.04 0.05 0.04 0.03 0.02 0.02 0.03 0.03 0.04 0.04 0.04 0.02 0.03 0.03 0.04 0.04 0.03 0.02
MSLP
1016.89 1017.00 1017.07 1017.13 1017.18 1017.25 1017.37 1017.56 1017.83 1018.15 1018.50 1018.84 1019.14 1019.38 1019.53 1019.62 1019.65 1019.67 1019.70 1019.77 1019.90 1020.09 1020.33 1020.60 1020.88 1021.17 1021.45 1021.71 1021.97 1022.23 1022.50 1022.77 1023.04 1023.29 1023.53 1023.73 1023.88 1023.97 1024.01 1024.01 1023.97 1023.93 1023.90
1016.80 1016.97 1017.08 1017.13 1017.14 1017.16 1017.23 1017.38 1017.65 1018.01 1018.45 1018.90 1019.31 1019.65 1019.88 1020.00 1020.03 1020.01 1019.98 1019.99 1020.07 1020.23 1020.46 1020.75 1021.06 1021.37 1021.66 1021.92 1022.14 1022.35 1022.55 1022.76 1022.98 1023.22 1023.46 1023.69 1023.89 1024.04 1024.13 1024.17 1024.17 1024.14 1024.11
1016.50 1016.77 1016.95 1017.04 1017.06 1017.06 1017.09 1017.23 1017.49 1017.89 1018.38 1018.92 1019.43 1019.85 1020.16 1020.31 1020.35 1020.30 1020.24 1020.20 1020.24 1020.37 1020.59 1020.88 1021.21 1021.53 1021.81 1022.04 1022.22 1022.36 1022.49 1022.63 1022.81 1023.03 1023.27 1023.54 1023.79 1024.00 1024.16 1024.26 1024.30 1024.30 1024.28
1015.94 1016.35 1016.65 1016.83 1016.90 1016.92 1016.96 1017.09 1017.35 1017.77 1018.29 1018.89 1019.47 1019.97 1020.33 1020.53 1020.58 1020.53 1020.44 1020.38 1020.39 1020.49 1020.71 1021.00 1021.32 1021.63 1021.90 1022.09 1022.23 1022.31 1022.38 1022.47 1022.61 1022.81 1023.06 1023.36 1023.66 1023.94 1024.16 1024.31 1024.40 1024.43 1024.42
1015.14 1015.71 1016.17 1016.48 1016.65 1016.73 1016.80 1016.94 1017.21 1017.63 1018.18 1018.80 1019.42 1019.96 1020.37 1020.61 1020.70 1020.67 1020.58 1020.51 1020.51 1020.61 1020.81 1021.09 1021.40 1021.71 1021.95 1022.13 1022.22 1022.27 1022.30 1022.35 1022.46 1022.65 1022.91 1023.23 1023.57 1023.89 1024.17 1024.37 1024.49 1024.53 1024.53
1014.15 1014.89 1015.53 1015.99 1016.30 1016.48 1016.61 1016.78 1017.05 1017.47 1018.01 1018.64 1019.27 1019.85 1020.29 1020.58 1020.71 1020.71 1020.66 1020.60 1020.61 1020.71 1020.91 1021.18 1021.48 1021.77 1022.01 1022.17 1022.25 1022.27 1022.28 1022.32 1022.42 1022.60 1022.87 1023.20 1023.56 1023.91 1024.21 1024.43 1024.56 1024.61 1024.61
1013.08 1013.97 1014.77 1015.41 1015.86 1016.15 1016.36 1016.57 1016.85 1017.26 1017.78 1018.39 1019.03 1019.62 1020.10 1020.43 1020.61 1020.68 1020.67 1020.66 1020.69 1020.81 1021.01 1021.28 1021.57 1021.86 1022.09 1022.24 1022.32 1022.35 1022.37 1022.41 1022.51 1022.69 1022.96 1023.29 1023.65 1024.00 1024.29 1024.51 1024.64 1024.68 1024.65
1012.02 1013.04 1013.98 1014.77 1015.36 1015.76 1016.05 1016.31 1016.60 1016.99 1017.49 1018.08 1018.70 1019.30 1019.81 1020.19 1020.44 1020.57 1020.64 1020.69 1020.77 1020.91 1021.12 1021.39 1021.68 1021.96 1022.19 1022.35 1022.45 1022.50 1022.54 1022.60 1022.71 1022.90 1023.16 1023.48 1023.81 1024.13 1024.40 1024.60 1024.70 1024.72 1024.67
1011.09 1012.18 1013.22 1014.12 1014.82 1015.33 1015.69 1015.99 1016.30 1016.68 1017.16 1017.71 1018.32 1018.92 1019.45 1019.89 1020.20 1020.42 1020.57 1020.69 1020.82 1021.00 1021.23 1021.50 1021.79 1022.06 1022.30 1022.48 1022.60 1022.68 1022.75 1022.84 1022.98 1023.17 1023.42 1023.71 1024.02 1024.30 1024.53 1024.68 1024.75 1024.75 1024.69
1010.34 1011.45 1012.54 1013.51 1014.28 1014.86 1015.29 1015.63 1015.95 1016.33 1016.78 1017.31 1017.90 1018.50 1019.05 1019.54 1019.92 1020.22 1020.45 1020.65 1020.85 1021.06 1021.32 1021.59 1021.88 1022.16 1022.40 1022.59 1022.74 1022.86 1022.97 1023.10 1023.25 1023.45 1023.69 1023.96 1024.22 1024.46 1024.64 1024.76 1024.81 1024.80 1024.74
1009.79 1010.88 1011.96 1012.94 1013.75 1014.37 1014.85 1015.22 1015.57 1015.95 1016.39 1016.91 1017.48 1018.07 1018.64 1019.16 1019.61 1019.98 1020.29 1020.57 1020.82 1021.08 1021.36 1021.65 1021.93 1022.21 1022.45 1022.67 1022.84 1023.00 1023.15 1023.31 1023.49 1023.70 1023.93 1024.17 1024.40 1024.60 1024.75 1024.85 1024.89 1024.88 1024.83
1009.40 1010.40 1011.43 1012.39 1013.20 1013.85 1014.36 1014.78 1015.16 1015.55 1016.00 1016.51 1017.07 1017.65 1018.24 1018.78 1019.28 1019.71 1020.09 1020.42 1020.73 1021.04 1021.34 1021.64 1021.93 1022.21 1022.46 1022.69 1022.89 1023.08 1023.27 1023.46 1023.67 1023.89 1024.13 1024.36 1024.57 1024.74 1024.87 1024.96 1025.00 1025.00 1024.98
1009.05 1009.96 1010.90 1011.80 1012.60 1013.26 1013.81 1014.28 1014.70 1015.14 1015.60 1016.12 1016.68 1017.26 1017.84 1018.40 1018.93 1019.40 1019.83 1020.22 1020.59 1020.93 1021.26 1021.58 1021.89 1022.17 1022.44 1022.68 1022.91 1023.12 1023.34 1023.57 1023.81 1024.05 1024.29 1024.52 1024.72 1024.89 1025.02 1025.11 1025.16 1025.19 1025.20
1008.65 1009.43 1010.28 1011.11 1011.88 1012.57 1013.16 1013.69 1014.19 1014.68 1015.19 1015.73 1016.29 1016.88 1017.46 1018.02 1018.56 1019.07 1019.54 1019.98 1020.40 1020.79 1021.16 1021.50 1021.83 1022.13 1022.41 1022.67 1022.91 1023.16 1023.41 1023.66 1023.93 1024.19 1024.45 1024.69 1024.90 1025.07 1025.20 1025.30 1025.37 1025.42 1025.45
1008.09 1008.76 1009.50 1010.27 1011.02 1011.73 1012.38 1013.00 1013.58 1014.16 1014.73 1015.31 1015.90 1016.49 1017.07 1017.64 1018.19 1018.73 1019.23 1019.72 1020.18 1020.63 1021.04 1021.43 1021.78 1022.11 1022.41 1022.69 1022.95 1023.22 1023.49 1023.77 1024.06 1024.35 1024.63 1024.88 1025.11 1025.29 1025.43 1025.54 1025.62 1025.68 1025.73
1007.35 1007.89 1008.54 1009.25 1009.98 1010.73 1011.46 1012.17 1012.86 1013.54 1014.20 1014.84 1015.46 1016.07 1016.67 1017.25 1017.82 1018.38 1018.93 1019.46 1019.98 1020.48 1020.95 1021.38 1021.78 1022.13 1022.46 1022.76 1023.05 1023.33 1023.63 1023.93 1024.24 1024.55 1024.85 1025.12 1025.35 1025.55 1025.69 1025.80 1025.89 1025.95 1025.99
1006.46 1006.88 1007.43 1008.09 1008.82 1009.60 1010.41 1011.22 1012.03 1012.81 1013.57 1014.28 1014.97 1015.61 1016.24 1016.84 1017.44 1018.03 1018.63 1019.22 1019.80 1020.36 1020.89 1021.38 1021.82 1022.22 1022.57 1022.89 1023.20 1023.50 1023.81 1024.12 1024.45 1024.78 1025.09 1025.38 1025.62 1025.82 1025.97 1026.08 1026.15 1026.19 1026.22
1005.52 1005.83 1006.29 1006.89 1007.61 1008.42 1009.29 1010.20 1011.11 1012.00 1012.84 1013.64 1014.39 1015.10 1015.76 1016.41 1017.05 1017.69 1018.34 1019.00 1019.65 1020.27 1020.87 1021.41 1021.90 1022.33 1022.72 1023.06 1023.38 1023.69 1024.01 1024.34 1024.68 1025.01 1025.34 1025.64 1025.89 1026.10 1026.24 1026.33 1026.39 1026.41 1026.40
1004.69 1004.88 1005.25 1005.79 1006.49 1007.30 1008.21 1009.18 1010.17 1011.14 1012.07 1012.94 1013.76 1014.53 1015.25 1015.96 1016.65 1017.36 1018.07 1018.79 1019.50 1020.20 1020.85 1021.45 1021.98 1022.45 1022.85 1023.21 1023.55 1023.87 1024.19 1024.53 1024.88 1025.23 1025.57 1025.87 1026.13 1026.34 1026.48 1026.56 1026.59 1026.58 1026.55
1004.13 1004.22 1004.49 1004.95 1005.59 1006.38 1007.29 1008.27 1009.29 1010.30 1011.29 1012.22 1013.10 1013.93 1014.72 1015.48 1016.25 1017.01 1017.79 1018.58 1019.35 1020.10 1020.80 1021.44 1022.00 1022.50 1022.93 1023.30 1023.65 1023.98 1024.32 1024.67 1025.03 1025.39 1025.73 1026.05 1026.32 1026.53 1026.67 1026.74 1026.76 1026.73 1026.67
1003.96 1003.94 1004.11 1004.48 1005.03 1005.75 1006.60 1007.55 1008.55 1009.56 1010.56 1011.53 1012.44 1013.32 1014.17 1015.00 1015.83 1016.66 1017.49 1018.33 1019.15 1019.94 1020.68 1021.35 1021.94 1022.45 1022.90 1023.29 1023.66 1024.01 1024.36 1024.73 1025.10 1025.47 1025.83 1026.16 1026.44 1026.66 1026.81 1026.88 1026.90 1026.86 1026.79
1004.22 1004.11 1004.17 1004.42 1004.86 1005.47 1006.22 1007.08 1008.01 1008.97 1009.94 1010.90 1011.83 1012.74 1013.63 1014.51 1015.39 1016.28 1017.16 1018.03 1018.89 1019.70 1020.46 1021.14 1021.75 1022.28 1022.75 1023.17 1023.56 1023.93 1024.31 1024.70 1025.09 1025.49 1025.86 1026.21 1026.51 1026.74 1026.90 1026.99 1027.01 1026.99 1026.93
1004.86 1004.66 1004.62 1004.75 1005.06 1005.53 1006.13 1006.86 1007.68 1008.55 1009.45 1010.37 1011.29 1012.21 1013.12 1014.03 1014.95 1015.86 1016.77 1017.67 1018.54 1019.36 1020.13 1020.82 1021.44 1021.99 1022.49 1022.94 1023.36 1023.77 1024.18 1024.60 1025.02 1025.44 1025.84 1026.20 1026.51 1026.77 1026.94 1027.06 1027.11 1027.11 1027.07
1005.75 1005.49 1005.36 1005.37 1005.53 1005.84 1006.29 1006.85 1007.52 1008.27 1009.08 1009.93 1010.81 1011.71 1012.62 1013.55 1014.48 1015.41 1016.33 1017.23 1018.10 1018.92 1019.69 1020.39 1021.02 1021.60 1022.13 1022.62 1023.09 1023.55 1024.01 1024.46 1024.92 1025.36 1025.77 1026.15 1026.47 1026.74 1026.94 1027.08 1027.16 1027.19 1027.19
1006.70 1006.40 1006.20 1006.11 1006.13 1006.29 1006.57 1006.97 1007.48 1008.09 1008.79 1009.55 1010.37 1011.23 1012.13 1013.05 1013.98 1014.91 1015.83 1016.72 1017.58 1018.40 1019.17 1019.88 1020.53 1021.14 1021.72 1022.26 1022.79 1023.30 1023.81 1024.30 1024.79 1025.24 1025.67 1026.05 1026.38 1026.65 1026.87 1027.03 1027.14 1027.22 1027.25
1007.53 1007.22 1006.97 1006.79 1006.70 1006.72 1006.85 1007.09 1007.45 1007.93 1008.51 1009.19 1009.94 1010.76 1011.63 1012.53 1013.44 1014.36 1015.27 1016.15 1017.00 1017.81 1018.58 1019.31 1019.99 1020.65 1021.28 1021.88 1022.47 1023.04 1023.60 1024.13 1024.63 1025.10 1025.52 1025.89 1026.21 1026.48 1026.71 1026.89 1027.03 1027.14 1027.22
Thickness
5736 5737 5737 5736 5734 5731 5728 5726 5724 5721 5719 5715 5711 5709 5707 5707 5706 5706 5705 5704 5703 5702 5700 5698 5696 5695 5693 5691 5690 5688 5685 5683 5683 5681 5677 5678 5679 5680 5680 5680 5680 5680 5680
5730 5731 5732 5732 5730 5728 5726 5724 5721 5719 5717 5715 5712 5709 5707 5705 5704 5703 5702 5701 5700 5699 5698 5696 5694 5692 5690 5688 5687 5685 5681 5680 5681 5677 5672 5668 5669 5673 5675 5675 5675 5675 5675
5727 5727 5727 5727 5727 5725 5724 5723 5720 5718 5716 5714 5710 5707 5704 5702 5700 5699 5698 5698 5698 5697 5696 5694 5692 5691 5689 5686 5685 5684 5681 5677 5678 5678 5673 5665 5662 5664 5668 5670 5671 5671 5671
5728 5726 5726 5724 5724 5724 5723 5722 5719 5717 5714 5712 5708 5704 5699 5696 5696 5696 5696 5696 5696 5695 5694 5692 5691 5689 5687 5685 5684 5683 5680 5678 5675 5675 5675 5672 5669 5663 5660 5663 5666 5667 5667
5726 5725 5725 5724 5724 5723 5721 5719 5717 5714 5712 5710 5707 5703 5699 5697 5696 5695 5694 5693 5693 5693 5692 5691 5689 5687 5685 5684 5682 5681 5680 5678 5675 5673 5672 5670 5668 5666 5661 5657 5659 5661 5663
5724 5724 5724 5722 5721 5720 5718 5716 5713 5710 5709 5707 5704 5701 5697 5695 5693 5692 5690 5690 5690 5690 5689 5689 5688 5686 5684 5683 5681 5680 5679 5677 5675 5673 5672 5669 5667 5664 5661 5657 5655 5655 5657
5718 5719 5718 5717 5716 5714 5713 5712 5710 5706 5705 5703 5701 5699 5697 5695 5692 5690 5689 5688 5687 5686 5686 5687 5685 5684 5683 5682 5681 5679 5677 5676 5674 5672 5671 5670 5669 5667 5663 5659 5654 5652 5653
5713 5715 5716 5715 5713 5711 5710 5708 5706 5703 5701 5700 5697 5696 5695 5693 5691 5689 5688 5686 5685 5685 5685 5684 5683 5682 5681 5680 5678 5677 5675 5674 5673 5671 5670 5668 5668 5666 5664 5660 5655 5650 5649
5709 5710 5712 5711 5709 5707 5706 5705 5703 5700 5698 5696 5695 5693 5691 5690 5688 5687 5686 5685 5684 5684 5683 5682 5681 5680 5679 5678 5676 5674 5673 5672 5670 5669 5667 5666 5665 5664 5663 5661 5659 5653 5647
5705 5705 5706 5706 5706 5704 5703 5701 5699 5696 5694 5692 5690 5689 5687 5687 5685 5684 5682 5682 5681 5681 5680 5679 5678 5677 5676 5674 5673 5671 5670 5669 5667 5666 5665 5663 5662 5661 5660 5659 5657 5655 5651
5699 5699 5700 5700 5701 5700 5697 5695 5693 5691 5689 5688 5686 5685 5683 5682 5681 5680 5679 5679 5678 5678 5676 5675 5674 5672 5671 5670 5669 5668 5667 5665 5664 5663 5662 5661 5660 5658 5657 5656 5655 5653 5650
5693 5694 5694 5694 5693 5693 5691 5689 5688 5687 5685 5684 5682 5680 5679 5678 5677 5676 5675 5675 5674 5673 5672 5671 5669 5668 5667 5666 5665 5663 5663 5661 5660 5659 5658 5657 5657 5655 5654 5653 5651 5650 5649
5686 5686 5686 5686 5686 5686 5685 5685 5684 5683 5682 5680 5678 5675 5673 5672 5672 5671 5671 5671 5669 5668 5667 5666 5665 5664 5663 5662 5661 5660 5659 5658 5657 5656 5655 5654 5653 5651 5650 5649 5648 5647 5646
5679 5678 5678 5678 5679 5680 5680 5680 5678 5678 5677 5675 5673 5670 5669 5668 5667 5667 5666 5665 5665 5664 5662 5662 5661 5660 5659 5658 5657 5656 5655 5654 5654 5653 5652 5652 5651 5649 5648 5647 5645 5643 5641
5672 5673 5672 5672 5672 5673 5673 5673 5672 5671 5671 5669 5667 5666 5665 5664 5662 5661 5660 5660 5659 5659 5658 5657 5656 5655 5655 5654 5653 5652 5651 5650 5650 5649 5649 5649 5649 5648 5647 5646 5643 5641 5637
5666 5667 5666 5665 5666 5666 5666 5667 5666 5665 5664 5662 5661 5661 5659 5657 5656 5655 5654 5653 5652 5652 5652 5651 5651 5650 5651 5651 5650 5649 5647 5646 5645 5645 5645 5645 5645 5644 5644 5643 5642 5640 5636
5658 5658 5657 5657 5658 5659 5660 5660 5660 5660 5659 5657 5656 5654 5653 5651 5650 5650 5648 5647 5646 5646 5645 5646 5646 5645 5646 5647 5646 5645 5644 5642 5641 5640 5640 5641 5641 5640 5639 5638 5637 5636 5634
5651 5651 5650 5651 5652 5653 5654 5654 5654 5654 5653 5652 5650 5649 5647 5645 5645 5643 5642 5641 5640 5639 5639 5640 5640 5640 5641 5642 5642 5641 5639 5637 5636 5636 5636 5635 5635 5635 5634 5632 5630 5629 5628
5646 5645 5646 5645 5645 5646 5647 5647 5646 5646 5646 5645 5645 5644 5643 5640 5638 5637 5636 5636 5635 5634 5634 5634 5635 5634 5635 5637 5637 5635 5633 5631 5631 5631 5631 5630 5630 5631 5630 5627 5624 5623 5622
5641 5640 5640 5640 5640 5640 5641 5640 5639 5639 5639 5640 5640 5640 5638 5635 5633 5633 5632 5631 5630 5629 5629 5629 5629 5630 5630 5631 5631 5630 5628 5625 5625 5625 5625 5626 5625 5625 5624 5622 5619 5617 5616
5634 5634 5635 5634 5635 5635 5635 5633 5634 5634 5635 5635 5634 5633 5632 5631 5629 5628 5627 5625 5625 5623 5623 5622 5623 5624 5625 5626 5625 5624 5622 5621 5619 5619 5619 5619 5620 5619 5618 5617 5616 5615 5613
5627 5628 5627 5627 5628 5628 5628 5627 5627 5629 5629 5628 5627 5626 5625 5624 5624 5621 5620 5619 5618 5616 5615 5614 5615 5616 5618 5619 5619 5619 5618 5617 5615 5614 5613 5613 5614 5613 5612 5611 5610 5609 5606
5621 5622 5621 5620 5620 5621 5621 5620 5621 5622 5622 5621 5619 5619 5618 5617 5616 5615 5613 5612 5611 5610 5608 5607 5607 5608 5610 5611 5613 5613 5613 5612 5610 5609 5609 5608 5607 5606 5604 5603 5602 5600 5597
5614 5614 5614 5612 5612 5613 5614 5614 5615 5615 5614 5613 5612 5611 5610 5609 5608 5607 5606 5605 5603 5603 5602 5601 5600 5601 5602 5603 5604 5604 5604 5604 5603 5602 5601 5600 5599 5597 5596 5594 5593 5591 5589
5607 5607 5606 5605 5605 5607 5607 5608 5608 5608 5606 5605 5604 5603 5603 5601 5600 5600 5599 5599 5599 5598 5597 5597 5596 5595 5595 5599 5599 5598 5597 5596 5595 5594 5591 5589 5587 5586 5585 5584 5583 5582 5580
5599 5599 5598 5598 5599 5600 5600 5601 5602 5601 5599 5597 5596 5595 5594 5593 5592 5591 5590 5591 5591 5592 5592 5591 5591 5591 5593 5593 5592 5591 5590 5589 5588 5585 5582 5580 5579 5578 5577 5576 5575 5573 5572